Selinsgrove, PA

9:57 PM EDT on May 25, 2017 (GMT -0400)
Penn Valley

Weather History for KSEG - April, 2014

Change the Weather History Date:

Monday, April 7, 2014

  Actual Average (KIPT) Record (KIPT)
Temperature  
Mean Temperature 39 °F -  
Max Temperature 48 °F 55 °F 89 °F (2010)
Min Temperature 30 °F 34 °F 15 °F (1982)
Degree Days  
Heating Degree Days 26    
Moisture  
Dew Point 37 °F    
Average Humidity 88    
Maximum Humidity 96    
Minimum Humidity 73    
Precipitation  
Precipitation 0.32 in - - ()
Sea Level Pressure  
Sea Level Pressure 29.93 in    
Wind  
Wind Speed 3 mph (NE)    
Max Wind Speed 8 mph    
Max Gust Speed -    
Visibility 5 miles    
Events Rain    
Averages and records for this station are not official NWS values.
T = Trace of Precipitation, MM = Missing Value Source: NWS Daily Summary

Daily Weather History Graph

Daily Weather History Graph

Search for Another Location

Airport or City:

Trip Planner

Search our weather history database for the weather conditions in past years. The results will help you decide how hot, cold, wet, or windy it might be!

Date:

Astronomy

Apr. 07, 2014 Rise Set
Actual Time 6:41 AM EDT 7:38 PM EDT
Civil Twilight 6:13 AM EDT 8:06 PM EDT
Nautical Twilight 5:40 AM EDT 8:39 PM EDT
Astronomical Twilight 5:05 AM EDT 9:14 PM EDT
Moon 12:34 PM EDT (4/7) 2:15 AM EDT (4/7)
Length of Visible Light 13h 53m
Length of Day
12h 57m
First Quarter, 53% of the Moon is Illuminated
Apr 7
First Quarter
Apr 15
Full
Apr 22
Last Quarter
Apr 29
New
May 6
First Quarter

Hourly Weather History & Observations

Time (EDT) Temp. Windchill Dew Point Humidity Pressure Visibility Wind Dir Wind Speed Gust Speed Precip Events Conditions
12:53 AM 34.0 °F 31.0 °F 30.0 °F 85% 30.17 in 10.0 mi NW 3.5 mph - N/A   Clear
1:53 AM 33.1 °F - 28.0 °F 82% 30.15 in 10.0 mi Calm Calm - N/A   Clear
2:53 AM 32.0 °F - 28.0 °F 85% 30.14 in 10.0 mi Calm Calm - N/A   Clear
3:53 AM 32.0 °F - 27.0 °F 82% 30.13 in 10.0 mi Calm Calm - N/A   Clear
4:53 AM 30.9 °F - 27.0 °F 85% 30.12 in 10.0 mi Calm Calm - N/A   Clear
5:53 AM 30.9 °F 27.5 °F 28.0 °F 89% 30.12 in 10.0 mi NNW 3.5 mph - N/A   Clear
6:53 AM 33.1 °F - 28.9 °F 85% 30.13 in 10.0 mi Calm Calm - N/A   Mostly Cloudy
7:53 AM 36.0 °F - 30.9 °F 82% 30.15 in 10.0 mi Calm Calm - N/A   Overcast
8:53 AM 37.9 °F - 32.0 °F 79% 30.13 in 10.0 mi Calm Calm - N/A   Overcast
9:53 AM 42.1 °F 39.2 °F 34.0 °F 73% 30.13 in 6.0 mi South 4.6 mph - 0.01 in Rain Light Rain
10:53 AM 42.1 °F 37.7 °F 35.1 °F 76% 30.12 in 6.0 mi South 6.9 mph - 0.05 in Rain Light Rain
11:53 AM 41.0 °F 37.1 °F 36.0 °F 82% 30.09 in 7.0 mi East 5.8 mph - 0.03 in Rain Light Rain
12:21 PM 39.9 °F 37.8 °F 34.0 °F 79% 30.07 in 7.0 mi ESE 3.5 mph - 0.02 in Rain Light Rain
12:53 PM 39.9 °F 36.7 °F 36.0 °F 86% 30.05 in 4.0 mi ENE 4.6 mph - 0.05 in Rain Light Rain
1:53 PM 41.0 °F 39.0 °F 36.0 °F 82% 30.01 in 3.0 mi NE 3.5 mph - 0.02 in Rain Light Rain
2:02 PM 41.0 °F 39.0 °F 37.0 °F 86% 29.97 in 2.0 mi NNE 3.5 mph - 0.00 in Rain Light Rain
2:20 PM 39.9 °F 37.8 °F 37.9 °F 93% 29.98 in 1.5 mi NNW 3.5 mph - 0.03 in Rain Rain
2:39 PM 39.9 °F 37.8 °F 37.9 °F 93% 29.96 in 1.2 mi NNE 3.5 mph - 0.05 in Rain Rain
2:53 PM 41.0 °F 37.1 °F 37.9 °F 89% 29.95 in 1.5 mi NNE 5.8 mph - 0.07 in Rain Light Rain
3:02 PM 41.0 °F 36.4 °F 37.9 °F 89% 29.93 in 1.5 mi NNE 6.9 mph - 0.01 in Rain Light Rain
3:14 PM 41.0 °F 38.0 °F 39.0 °F 93% 29.94 in 1.8 mi NE 4.6 mph - 0.02 in Rain Light Rain
3:43 PM 41.0 °F 39.0 °F 39.0 °F 93% 29.91 in 1.0 mi North 3.5 mph - 0.06 in Rain Rain
3:51 PM 41.0 °F - 39.2 °F 93% 29.92 in 1.0 mi Calm Calm - 0.08 in Rain Rain
4:01 PM 41.0 °F - 39.0 °F 93% 29.91 in 1.2 mi Calm Calm - 0.01 in Rain Light Rain
4:50 PM 42.8 °F - 39.2 °F 87% 29.88 in 1.8 mi Calm Calm - 0.06 in Rain Light Rain
4:53 PM 42.1 °F 40.2 °F 39.9 °F 92% 29.90 in 1.8 mi NNE 3.5 mph - 0.06 in Rain Light Rain
5:13 PM 42.1 °F 38.4 °F 39.9 °F 92% 29.85 in 2.0 mi NE 5.8 mph - 0.01 in Rain Light Rain
5:20 PM 42.1 °F 38.4 °F 39.9 °F 92% 29.85 in 1.8 mi NE 5.8 mph - 0.02 in Rain Light Rain
5:30 PM 42.1 °F 38.4 °F 39.9 °F 92% 29.83 in 2.5 mi NE 5.8 mph - 0.02 in Rain Light Rain
5:44 PM 42.1 °F 38.4 °F 39.9 °F 92% 29.82 in 3.0 mi NE 5.8 mph - 0.02 in Rain Light Rain
5:53 PM 42.1 °F 39.2 °F 41.0 °F 96% 29.83 in 3.0 mi NE 4.6 mph - 0.03 in Rain Light Rain
5:57 PM 43.0 °F 39.5 °F 41.0 °F 93% 29.82 in 2.5 mi NE 5.8 mph - 0.00 in Rain Light Rain
6:09 PM 43.0 °F 38.8 °F 41.0 °F 93% 29.80 in 3.0 mi NE 6.9 mph - 0.00 in Rain Light Rain
6:22 PM 43.0 °F 39.5 °F 41.0 °F 93% 29.78 in 4.0 mi ENE 5.8 mph - 0.00 in Rain Light Rain
6:53 PM 43.0 °F 39.5 °F 41.0 °F 93% 29.78 in 7.0 mi NNE 5.8 mph - 0.00 in   Overcast
7:32 PM 43.0 °F 41.3 °F 41.0 °F 93% 29.73 in 3.0 mi NNE 3.5 mph - 0.00 in   Overcast
7:53 PM 43.0 °F - 41.0 °F 93% 29.72 in 5.0 mi Calm Calm - 0.00 in   Overcast
8:53 PM 46.9 °F - 43.0 °F 86% 29.69 in 10.0 mi Variable 4.6 mph - N/A   Overcast
9:53 PM 46.9 °F - 44.1 °F 90% 29.66 in 10.0 mi SSE 4.6 mph - N/A   Overcast
10:17 PM 48.9 °F - 44.1 °F 83% 29.64 in 10.0 mi SE 8.1 mph - N/A   Overcast
10:53 PM 48.9 °F - 45.0 °F 86% 29.63 in 10.0 mi SSE 8.1 mph - N/A   Overcast
11:53 PM 48.0 °F - 45.0 °F 89% 29.58 in 8.0 mi Variable 5.8 mph - 0.00 in   Overcast